Vorticity
nan nan nan nan nan nan nan nan nan nan nan nan nan nan nan nan nan nan nan nan nan nan nan nan nan nan nan nan nan nan nan nan nan nan nan nan nan nan nan nan nan nan nan
nan 5 5 5 5 5 5 5 5 5 4 4 5 4 3 4 5 4 4 5 8 8 3 4 4 5 5 5 7 7 4 4 4 3 4 4 4 4 3 3 5 4 nan
nan 5 7 4 5 5 4 4 4 4 4 4 4 4 4 4 4 4 5 5 5 8 9 4 3 4 5 5 5 5 4 4 4 4 3 7 7 6 3 3 4 4 nan
nan 6 8 6 5 4 4 4 4 5 4 4 4 5 6 7 8 8 7 5 4 6 9 7 5 3 3 5 5 4 4 4 4 5 6 6 7 8 3 4 4 4 nan
nan 7 9 8 6 5 4 4 5 6 8 7 6 7 7 7 8 9 7 7 6 6 5 5 6 6 6 4 4 4 5 5 6 4 5 7 8 2 4 4 6 5 nan
nan 5 6 7 8 7 7 7 6 7 7 7 7 7 7 7 7 7 7 7 8 8 8 9 9 10 9 7 6 5 5 6 5 6 7 7 5 3 3 4 5 5 nan
nan 6 6 7 8 7 6 7 7 7 6 6 6 6 7 7 7 7 7 7 7 7 7 8 9 9 11 13 12 9 8 7 4 6 9 8 8 11 2 3 5 6 nan
nan 6 4 4 6 7 6 6 7 7 6 6 6 5 5 5 6 6 5 6 6 5 5 5 5 6 6 7 10 13 13 9 7 7 5 9 10 8 4 4 5 5 nan
nan 8 5 3 1 1 4 6 6 6 5 5 4 5 4 3 4 5 3 6 4 5 6 6 6 5 5 5 4 8 11 10 8 7 8 9 10 7 3 4 5 5 nan
nan 6 6 6 5 3 2 3 4 4 3 3 3 4 5 9 6 4 5 2 5 6 6 6 6 5 5 4 5 6 6 11 10 8 8 5 9 7 4 4 6 7 nan
nan 6 5 6 6 6 6 8 6 3 5 5 4 3 5 8 6 7 8 1 4 5 4 6 5 6 8 14 14 7 5 7 11 11 8 11 10 6 4 6 9 10 nan
nan 4 5 5 6 6 5 4 6 5 7 7 7 8 10 7 11 10 6 8 7 6 10 9 8 11 9 9 17 12 4 5 9 8 9 11 7 9 8 9 10 10 nan
nan 5 6 5 6 6 6 7 7 7 6 6 6 8 9 8 7 9 9 8 12 9 8 9 10 10 10 8 7 7 6 9 10 8 11 9 4 6 7 8 7 8 nan
nan 5 5 6 5 6 6 8 7 7 8 7 6 7 9 8 6 8 8 7 8 7 7 9 8 6 7 7 7 8 9 10 8 8 12 11 6 7 7 7 8 7 nan
nan 5 6 5 5 5 7 8 7 7 8 7 7 7 8 8 7 7 7 8 8 8 8 7 7 8 8 9 9 8 8 8 8 8 13 6 3 5 10 10 10 9 nan
nan 6 6 6 6 5 6 6 7 8 7 8 7 7 7 8 7 7 7 8 8 7 7 8 8 8 9 8 8 9 9 10 10 8 8 8 8 6 9 11 11 10 nan
nan 8 7 6 6 6 5 6 7 8 7 7 6 6 7 7 7 8 8 7 7 7 8 8 8 9 9 8 9 10 9 9 9 10 10 10 11 8 6 7 9 10 nan
nan 9 7 6 7 6 6 6 7 7 7 7 6 6 7 7 7 8 8 7 8 8 9 9 9 8 9 9 9 8 9 9 9 10 10 9 10 11 7 4 6 9 nan
nan 8 7 7 6 6 6 6 7 8 7 7 6 6 6 6 7 8 8 7 8 9 8 8 8 9 8 10 8 9 10 9 12 11 9 11 9 8 8 8 4 1 nan
nan 8 7 8 7 6 5 6 7 7 8 6 7 6 6 7 6 7 7 7 8 8 8 6 7 9 8 8 9 11 10 11 10 9 9 8 6 7 8 6 7 2 nan
nan 10 9 8 7 5 6 7 8 8 8 7 7 6 6 6 7 7 7 7 7 7 7 8 9 8 9 9 10 11 12 8 7 9 7 5 6 7 10 9 9 6 nan
nan 10 10 8 7 5 6 7 8 9 7 7 8 9 7 6 7 7 6 7 7 7 7 8 9 10 8 8 11 11 13 11 6 9 7 5 7 7 9 9 7 9 nan
nan 11 10 10 7 7 6 6 6 6 7 9 9 8 8 7 6 7 7 7 7 8 7 7 8 8 9 7 9 13 8 6 12 13 7 4 8 11 7 7 8 9 nan
nan 11 11 10 7 7 6 5 6 5 7 8 8 7 8 9 9 8 8 7 8 8 7 8 8 7 8 8 10 10 8 7 6 3 6 10 9 10 11 6 7 8 nan
nan 11 10 8 7 7 6 6 8 7 6 8 7 8 9 11 11 9 9 9 8 7 7 7 8 8 8 8 7 6 8 9 9 6 3 7 6 7 6 10 11 7 nan
nan nan nan nan nan nan nan nan nan nan nan nan nan nan nan nan nan nan nan nan nan nan nan nan nan nan nan nan nan nan nan nan nan nan nan nan nan nan nan nan nan nan nan
CAPE
972 1283 1453 1089 851 648 437 326 153 84 141 54 70 260 414 448 486 680 694 683 818 170 171 612 757 630 331 188 320 251 60 0 0 0 0 0 4 77 0 0 0 18 4
1048 668 1645 1168 911 672 394 262 212 175 305 326 242 221 297 589 573 463 300 269 339 451 178 169 252 394 387 332 210 545 238 4 0 0 0 0 0 0 0 0 0 0 0
785 664 1000 1553 986 644 501 396 333 258 213 212 251 275 299 311 292 321 382 373 203 455 780 265 142 95 279 327 318 354 341 117 0 0 0 0 11 0 0 0 0 0 0
743 663 771 1618 1059 779 761 675 622 529 447 402 389 457 557 644 760 771 728 724 542 272 824 553 380 223 125 97 228 210 203 232 104 0 0 0 2 0 0 3 2 0 0
665 837 995 1612 1202 1089 1062 1076 1012 940 913 853 868 859 865 882 849 805 708 610 612 634 590 414 488 825 634 403 207 154 169 234 384 99 0 0 0 5 5 11 20 74 2
831 1046 1038 1525 1176 1030 1051 999 973 947 937 782 555 255 191 358 487 553 606 639 580 578 662 765 838 802 682 882 827 634 369 312 522 30 11 1 0 4 21 21 80 74 193
928 886 895 1302 1143 1065 955 668 526 376 43 0 0 0 0 0 0 1 8 0 0 0 0 0 113 437 705 800 747 604 799 603 86 4 64 68 56 203 8 17 38 138 295
896 991 943 581 376 17 0 0 0 0 0 0 0 0 0 0 0 0 0 0 0 0 0 0 0 0 0 0 114 672 669 367 109 149 39 152 307 62 212 346 201 124 158
987 787 608 277 0 0 0 0 0 0 0 0 0 0 0 0 0 0 0 0 0 0 0 0 0 0 0 0 0 0 113 273 176 303 212 50 486 292 262 349 318 240 190
338 17 0 0 0 0 0 0 0 0 0 0 0 0 0 0 0 0 0 0 0 0 0 0 0 0 0 0 0 0 0 0 229 381 325 282 563 435 478 532 669 633 655
0 0 0 0 0 0 0 0 0 0 0 0 0 0 0 0 0 0 0 0 0 0 0 0 0 0 0 0 0 0 0 0 0 36 259 416 655 609 493 554 567 498 547
0 0 0 0 0 0 0 0 0 0 0 0 0 0 0 0 0 0 0 0 0 0 0 0 0 0 0 0 0 0 0 0 0 0 2 160 110 301 332 570 468 386 262
0 0 0 0 0 0 0 0 0 0 0 0 0 0 0 0 0 0 0 0 0 0 0 0 0 0 0 0 0 0 0 0 0 0 0 112 31 3 272 301 114 83 100
0 0 0 0 0 0 0 0 0 0 0 0 0 0 0 0 0 0 0 0 0 0 0 0 0 0 0 0 0 0 0 0 0 0 0 34 17 0 81 91 36 31 1
0 0 0 0 0 0 0 0 0 0 0 0 0 0 0 0 0 0 0 0 0 0 0 0 0 0 0 0 0 0 0 0 0 0 0 31 31 8 0 3 7 3 2
0 0 0 0 0 0 0 0 0 0 0 0 0 0 0 0 0 0 0 0 0 0 0 0 0 0 0 0 0 0 0 0 0 0 0 0 13 4 0 0 0 0 0
0 0 0 0 0 0 0 0 0 0 0 0 0 0 0 0 0 0 0 0 0 0 0 0 0 0 0 0 0 0 0 0 0 0 0 0 3 24 1 0 0 0 0
0 0 0 0 0 0 0 0 0 0 0 0 0 0 0 0 0 0 0 0 0 0 0 0 0 0 0 0 1 0 0 0 0 0 2 4 12 7 7 0 0 0 1
0 0 0 0 0 0 0 0 0 0 0 0 0 0 0 0 0 0 0 0 0 0 0 0 0 0 2 3 1 0 0 0 0 1 1 0 0 0 0 0 0 0 0
0 0 0 0 0 0 0 0 0 0 0 0 0 0 0 0 0 0 0 0 0 0 0 0 0 0 1 0 0 0 1 0 0 4 1 0 0 0 2 4 11 0 5
0 0 0 0 0 0 0 0 0 0 0 0 0 0 0 0 0 0 0 0 0 0 0 0 0 2 3 3 1 0 0 0 0 0 0 0 0 0 4 11 7 4 7
0 0 0 0 0 0 0 0 0 0 0 0 0 0 0 0 0 0 0 0 0 0 0 0 0 3 6 2 4 1 0 0 2 1 2 2 0 9 10 7 1 3 7
0 0 0 0 0 0 0 0 0 0 0 0 0 0 0 0 0 0 0 0 0 0 0 0 0 1 3 0 9 4 1 0 0 3 2 0 5 14 22 4 0 3 3
0 0 0 0 0 0 0 0 0 0 0 0 0 0 0 0 0 0 0 0 0 0 0 0 0 0 3 0 4 8 8 7 9 0 0 1 13 5 4 3 6 9 1
0 0 0 0 0 0 0 0 0 0 0 0 0 0 0 0 0 0 0 0 0 0 0 0 0 0 3 2 1 9 10 16 10 9 8 0 4 4 3 10 13 11 0
0 0 0 0 0 0 0 0 0 0 0 0 0 0 0 0 0 0 0 0 0 0 0 0 0 0 1 3 0 7 12 11 3 10 11 8 10 5 5 0 23 2 0